Location: Newark
(25.4800°N, 85.7200°E)
Time: 19:48:13
(UTC+00:00)

Vanguard 2 - All Passes

Search period start: 24 August 2019 00:00
Search period end: 03 September 2019 00:00
Orbit: 554 x 2938 km, 32.9° (Epoch: 24 August)

Date Brightness Start Highest point End Pass type
(mag) Time Alt. Az. Time Alt. Az. Time Alt. Az.
24 Aug - 03:52:05 10° SSW 03:55:19 22° SE 03:59:14 10° E daylight
24 Aug - 05:58:27 10° WSW 06:03:16 73° NNW 06:10:56 10° ENE daylight
24 Aug - 08:06:42 10° WNW 08:13:14 52° N 08:24:13 10° ENE daylight
24 Aug - 10:15:01 10° WNW 10:24:18 74° NNE 10:39:41 10° ESE daylight
24 Aug - 12:24:01 10° WNW 12:36:04 63° SSW 12:53:15 10° SE daylight
24 Aug - 14:36:20 10° W 14:48:20 27° SW 15:01:57 10° SSE visible
25 Aug - 04:09:14 10° SW 04:13:02 38° SSE 04:17:55 10° E daylight
25 Aug - 06:16:33 10° W 06:21:27 58° NNW 06:29:14 10° ENE daylight
25 Aug - 08:24:50 10° WNW 08:31:36 53° N 08:43:01 10° E daylight
25 Aug - 10:33:02 10° WNW 10:42:34 85° NNE 10:58:17 10° ESE daylight
25 Aug - 12:42:22 10° WNW 12:54:17 51° SSW 13:10:48 10° SE visible
25 Aug - 14:56:34 10° WSW 15:06:35 20° SW 15:17:38 10° S visible
26 Aug - 04:26:50 10° SW 04:30:51 64° SSE 04:36:16 10° ENE daylight
26 Aug - 06:34:44 10° W 06:39:43 49° N 06:47:37 10° ENE daylight
26 Aug - 08:42:54 10° WNW 08:49:55 58° NNE 09:01:52 10° E daylight
26 Aug - 10:51:04 10° WNW 11:00:46 81° SSW 11:16:38 10° ESE daylight
26 Aug - 13:00:57 10° W 13:12:32 40° SSW 13:27:59 10° SSE visible
26 Aug - 15:18:47 10° WSW 15:25:00 13° SW 15:31:31 10° SSW visible
27 Aug - 02:38:50 10° S 02:41:04 14° SE 02:43:21 10° ESE daylight
27 Aug - 04:44:42 10° WSW 04:48:49 83° NNW 04:54:28 10° ENE daylight
27 Aug - 06:52:55 10° WNW 06:58:01 45° N 07:06:07 10° ENE daylight
27 Aug - 09:00:54 10° WNW 09:08:10 66° NNE 09:20:39 10° E daylight
27 Aug - 11:09:09 10° WNW 11:18:58 67° SSW 11:34:42 10° SE daylight
27 Aug - 13:19:56 10° W 13:30:48 30° SW 13:44:43 10° SSE visible
28 Aug - 02:55:31 10° SSW 02:58:52 26° SSE 03:02:24 10° E daylight
28 Aug - 05:02:47 10° W 05:06:54 58° NNW 05:12:37 10° ENE daylight
28 Aug - 07:11:04 10° WNW 07:16:19 45° N 07:24:45 10° ENE daylight
28 Aug - 09:18:53 10° WNW 09:26:22 77° NNE 09:39:20 10° ESE daylight
28 Aug - 11:27:22 10° WNW 11:37:12 54° SSW 11:52:27 10° SE daylight
28 Aug - 13:39:35 10° WSW 13:49:10 22° SW 14:00:48 10° S visible
29 Aug - 03:12:54 10° SW 03:16:44 46° SSE 03:20:51 10° ENE daylight
29 Aug - 05:20:58 10° W 05:25:04 45° N 05:30:49 10° ENE daylight
29 Aug - 07:29:08 10° WNW 07:34:34 48° NNE 07:43:27 10° E daylight
29 Aug - 09:36:50 10° WNW 09:44:31 89° SSW 09:57:48 10° ESE daylight
29 Aug - 11:45:47 10° W 11:55:27 42° SSW 12:09:51 10° SSE daylight
29 Aug - 14:00:32 10° WSW 14:07:38 15° SW 14:15:41 10° S visible
30 Aug - 01:25:12 10° S 01:26:39 11° SSE 01:28:02 10° SE daylight
30 Aug - 03:30:42 10° WSW 03:34:38 79° SSE 03:39:02 10° ENE daylight
30 Aug - 05:39:11 10° WNW 05:43:18 39° N 05:49:06 10° ENE daylight
30 Aug - 07:47:07 10° WNW 07:52:47 55° NNE 08:02:11 10° E daylight
30 Aug - 09:54:51 10° WNW 10:02:40 72° SSW 10:16:02 10° SE daylight
30 Aug - 12:04:31 10° W 12:13:45 32° SSW 12:26:48 10° SSE daylight
31 Aug - 01:41:14 10° SSW 01:44:38 21° SSE 01:47:40 10° E daylight
31 Aug - 03:48:44 10° WSW 03:52:38 66° NNW 03:57:06 10° ENE daylight
31 Aug - 05:57:22 10° WNW 06:01:33 37° N 06:07:31 10° ENE daylight
31 Aug - 08:05:04 10° WNW 08:10:56 66° NNE 08:20:52 10° E daylight
31 Aug - 10:12:58 10° WNW 10:20:50 57° SSW 10:33:57 10° SE daylight
31 Aug - 12:23:48 10° WSW 12:32:09 23° SSW 12:43:09 10° SSE daylight
01 Sep - 01:58:26 10° SW 02:02:36 35° SSE 02:06:14 10° E daylight
01 Sep - 04:06:56 10° W 04:10:44 46° NNW 04:15:07 10° ENE daylight
01 Sep - 06:15:29 10° WNW 06:19:47 39° N 06:26:03 10° ENE daylight
01 Sep - 08:22:59 10° WNW 08:29:02 82° NNE 08:39:24 10° ESE daylight
01 Sep - 10:31:16 10° W 10:39:04 43° SSW 10:51:30 10° SE daylight
01 Sep - 12:44:07 10° WSW 12:50:39 16° SSW 12:58:30 10° S visible
02 Sep - 00:10:13 10° S 00:12:03 12° SSE 00:13:44 10° SE daylight
02 Sep - 02:16:06 10° SW 02:20:33 62° SSE 02:24:26 10° ENE daylight
02 Sep - 04:25:13 10° WNW 04:28:54 36° N 04:33:13 10° ENE daylight
02 Sep - 06:33:29 10° WNW 06:37:58 44° NNE 06:44:40 10° E daylight
02 Sep - 08:40:57 10° WNW 08:47:07 79° SSW 08:57:43 10° ESE daylight
02 Sep - 10:49:50 10° W 10:57:21 32° SSW 11:08:38 10° SSE daylight
